DLH1CF EDLP-LEPA

Flight info

Callsign DLH1CF
Flight time N/A
Altitude 37000
Route GISDI1W GISDI Y13 ALEXU N850 GISEM DCT BOMBI DCT GIGET DCT ABUKA/N0439F380 DCT KRH DCT NATOR/N0441F370 DCT LUTIX/N0443F390 DCT BENOT DCT NEMOS DCT GEVEA DCT INCUS DCT BALSI DCT RETNO DCT TUPOX DCT MTG DCT DIVKO DCT VATIR N852 VERSO L129 LUNIK
Aircraft A20N/M-SDE2E3FGHIRWXY/LB1

Departure

Time N/A
Airport Paderborn Lippstadt Airport (EDLP)

Arrival

Time 2026-05-04 09:49
Airport Palma de Mallorca Airport (LEPA)
Time Latitude Longitude Altitude Speed Heading
2026-05-04 07:52 49.23429 8.63254 37019 ft 416 kts 190°
2026-05-04 07:52 49.20565 8.62679 37017 ft 415 kts 190°
2026-05-04 07:54 48.97685 8.57934 37012 ft 414 kts 195°
2026-05-04 07:55 48.92100 8.56103 37015 ft 413 kts 195°
2026-05-04 07:55 48.86476 8.54273 37013 ft 413 kts 194°
2026-05-04 07:56 48.80855 8.52456 37012 ft 413 kts 194°
2026-05-04 07:56 48.75232 8.50646 37010 ft 413 kts 195°
2026-05-04 07:57 48.69655 8.48853 37014 ft 413 kts 194°
2026-05-04 07:57 48.64035 8.47050 37019 ft 413 kts 194°
2026-05-04 07:58 48.58416 8.45253 37017 ft 413 kts 194°
2026-05-04 07:58 48.52796 8.43459 37017 ft 413 kts 194°
2026-05-04 07:59 48.47214 8.41681 37018 ft 413 kts 194°
2026-05-04 07:59 48.41593 8.39895 37019 ft 413 kts 194°
2026-05-04 08:00 48.35972 8.38114 37031 ft 413 kts 194°
2026-05-04 08:02 48.13953 8.29092 37024 ft 409 kts 210°
2026-05-04 08:02 48.09145 8.24578 37027 ft 408 kts 214°
2026-05-04 08:03 48.04383 8.19953 37022 ft 409 kts 214°
2026-05-04 08:03 47.99635 8.15382 37035 ft 409 kts 214°
2026-05-04 08:04 47.94847 8.10790 37032 ft 409 kts 214°
2026-05-04 08:04 47.90051 8.06200 37029 ft 410 kts 214°
2026-05-04 08:05 47.85248 8.01614 37044 ft 410 kts 214°
2026-05-04 08:05 47.80473 7.97063 37050 ft 410 kts 214°
2026-05-04 08:06 47.75654 7.92482 37047 ft 411 kts 214°
2026-05-04 08:06 47.70830 7.87905 37052 ft 411 kts 214°
2026-05-04 08:08 47.51612 7.69774 37045 ft 410 kts 213°
2026-05-04 08:11 47.29926 7.49507 37048 ft 411 kts 213°
2026-05-04 08:11 47.23274 7.43339 37055 ft 412 kts 213°
2026-05-04 08:12 47.19441 7.39680 37058 ft 412 kts 217°
2026-05-04 08:12 47.15186 7.34308 37058 ft 411 kts 226°
2026-05-04 08:13 47.11499 7.27894 37049 ft 411 kts 231°
2026-05-04 08:13 47.07953 7.21309 37043 ft 411 kts 231°
2026-05-04 08:14 47.04388 7.14752 37043 ft 411 kts 231°
2026-05-04 08:16 46.89834 6.89097 37047 ft 408 kts 223°
2026-05-04 08:16 46.85463 6.83801 37047 ft 409 kts 219°
2026-05-04 08:17 46.81079 6.78595 37048 ft 409 kts 220°
2026-05-04 08:17 46.76667 6.73350 37033 ft 409 kts 220°
2026-05-04 08:19 46.59062 6.52536 37023 ft 407 kts 220°
2026-05-04 08:20 46.57770 6.51016 37025 ft 407 kts 220°
2026-05-04 08:21 46.53416 6.45900 37047 ft 407 kts 219°
2026-05-04 08:22 46.52664 6.45016 37046 ft 407 kts 219°
2026-05-04 08:24 46.43668 6.34484 37036 ft 406 kts 219°
2026-05-04 08:27 46.41235 6.31643 37035 ft 406 kts 219°
2026-05-04 08:31 46.40135 6.30367 37034 ft 406 kts 218°
2026-05-04 08:33 46.24216 6.13864 37017 ft 406 kts 202°
2026-05-04 08:33 46.21524 6.12590 37018 ft 408 kts 196°
2026-05-04 08:35 45.98874 6.07392 37048 ft 414 kts 192°
2026-05-04 08:35 45.93181 6.06082 37044 ft 414 kts 193°
2026-05-04 08:37 45.73282 6.01627 37050 ft 414 kts 192°
2026-05-04 08:38 45.67581 6.00379 37047 ft 414 kts 192°
2026-05-04 08:38 45.61879 5.99131 37049 ft 414 kts 192°
2026-05-04 08:40 45.39252 5.93401 37047 ft 412 kts 196°
2026-05-04 08:41 45.33660 5.91655 37044 ft 412 kts 196°
2026-05-04 08:41 45.28100 5.89925 37047 ft 412 kts 195°
2026-05-04 08:42 45.22500 5.88187 37045 ft 412 kts 196°
2026-05-04 08:42 45.16905 5.86454 37084 ft 412 kts 196°
2026-05-04 08:42 45.14101 5.85586 37270 ft 412 kts 196°
2026-05-04 08:43 45.11300 5.84722 37454 ft 412 kts 196°
2026-05-04 08:43 45.08498 5.83858 37608 ft 412 kts 196°
2026-05-04 08:43 45.06141 5.83132 37724 ft 412 kts 196°
2026-05-04 08:44 45.03522 5.82324 37864 ft 412 kts 196°
2026-05-04 08:44 45.00731 5.81467 38076 ft 410 kts 196°
2026-05-04 08:46 44.81296 5.75505 38914 ft 409 kts 197°
2026-05-04 08:46 44.75726 5.73803 39048 ft 410 kts 196°
2026-05-04 08:47 44.70149 5.72102 39073 ft 410 kts 196°
2026-05-04 08:47 44.64581 5.70406 39077 ft 409 kts 196°
2026-05-04 08:48 44.59058 5.68728 39088 ft 409 kts 196°
2026-05-04 08:48 44.53485 5.67038 39092 ft 410 kts 196°
2026-05-04 08:49 44.47919 5.65354 39083 ft 409 kts 196°
2026-05-04 08:50 44.29040 5.57457 39073 ft 404 kts 205°
2026-05-04 08:51 44.23817 5.54587 39074 ft 404 kts 205°
2026-05-04 08:51 44.18621 5.51746 39068 ft 404 kts 205°
2026-05-04 08:52 44.13391 5.48893 39075 ft 404 kts 205°
2026-05-04 08:52 44.08149 5.46041 39052 ft 405 kts 205°
2026-05-04 08:54 43.86971 5.34568 39056 ft 422 kts 205°
2026-05-04 08:55 43.81489 5.31610 39037 ft 422 kts 205°
2026-05-04 08:55 43.76018 5.28666 39027 ft 422 kts 205°
2026-05-04 09:01 43.21648 4.92684 39021 ft 409 kts 217°
2026-05-04 09:01 43.16956 4.88285 39018 ft 409 kts 217°
2026-05-04 09:02 43.12257 4.83889 38991 ft 409 kts 217°
2026-05-04 09:02 43.07572 4.79514 39012 ft 408 kts 217°
2026-05-04 09:03 43.02753 4.75487 39013 ft 410 kts 212°
2026-05-04 09:03 42.97756 4.71716 39004 ft 410 kts 213°
2026-05-04 09:04 42.92767 4.67941 39004 ft 410 kts 213°
2026-05-04 09:04 42.87787 4.64173 39004 ft 409 kts 213°
2026-05-04 09:05 42.82843 4.60446 39004 ft 409 kts 213°
2026-05-04 09:05 42.77865 4.56696 39002 ft 409 kts 212°
2026-05-04 09:06 42.72881 4.52948 38997 ft 409 kts 212°
2026-05-04 09:08 42.52954 4.38033 38967 ft 410 kts 212°
2026-05-04 09:08 42.47982 4.34331 38989 ft 407 kts 212°
2026-05-04 09:09 42.43008 4.30630 38987 ft 408 kts 212°
2026-05-04 09:09 42.38068 4.26962 38981 ft 408 kts 212°
2026-05-04 09:10 42.33094 4.23276 38984 ft 408 kts 212°
2026-05-04 09:10 42.28130 4.19607 38976 ft 406 kts 213°
2026-05-04 09:11 42.23164 4.15940 38980 ft 407 kts 213°
2026-05-04 09:11 42.18231 4.12304 38984 ft 407 kts 213°
2026-05-04 09:12 42.13259 4.08647 38976 ft 407 kts 213°
2026-05-04 09:14 41.93344 3.94559 38976 ft 409 kts 206°
2026-05-04 09:14 41.87879 3.92351 38976 ft 412 kts 198°
2026-05-04 09:15 41.82201 3.91007 38976 ft 415 kts 196°
2026-05-04 09:15 41.76504 3.89707 38982 ft 415 kts 196°
2026-05-04 09:17 41.51299 3.83917 38440 ft 393 kts 197°
2026-05-04 09:18 41.48594 3.83291 38133 ft 396 kts 197°
2026-05-04 09:18 41.45906 3.82670 37860 ft 398 kts 197°
2026-05-04 09:18 41.43180 3.82045 37589 ft 398 kts 197°
2026-05-04 09:18 41.40455 3.81423 37320 ft 397 kts 197°
2026-05-04 09:19 41.37727 3.80800 37055 ft 397 kts 197°
2026-05-04 09:19 41.35005 3.80179 36806 ft 397 kts 197°
2026-05-04 09:19 41.32286 3.79559 36548 ft 396 kts 197°
2026-05-04 09:19 41.29567 3.78939 36292 ft 396 kts 197°
2026-05-04 09:20 41.26845 3.78320 36027 ft 397 kts 197°
2026-05-04 09:20 41.24157 3.77708 35780 ft 398 kts 197°
2026-05-04 09:20 41.21432 3.77088 35531 ft 398 kts 197°
2026-05-04 09:20 41.18704 3.76469 35288 ft 398 kts 197°
2026-05-04 09:21 41.15994 3.75764 35043 ft 395 kts 200°
2026-05-04 09:21 41.13378 3.74727 34802 ft 391 kts 205°
2026-05-04 09:21 41.10854 3.73427 34564 ft 390 kts 207°
2026-05-04 09:21 41.08330 3.72109 34326 ft 390 kts 207°
2026-05-04 09:22 41.05804 3.70800 34066 ft 390 kts 207°
2026-05-04 09:22 41.03275 3.69494 33802 ft 390 kts 207°
2026-05-04 09:22 41.00777 3.68207 33534 ft 391 kts 206°
2026-05-04 09:22 40.98233 3.66898 33275 ft 393 kts 206°
2026-05-04 09:23 40.95681 3.65587 33007 ft 394 kts 206°
2026-05-04 09:23 40.93123 3.64273 32560 ft 396 kts 206°
2026-05-04 09:23 40.90535 3.62943 31672 ft 402 kts 206°
2026-05-04 09:23 40.87922 3.61602 30936 ft 403 kts 206°
2026-05-04 09:25 40.70330 3.52624 27058 ft 369 kts 206°
2026-05-04 09:25 40.67951 3.51412 26573 ft 364 kts 206°
2026-05-04 09:26 40.65604 3.50217 26092 ft 360 kts 206°
2026-05-04 09:26 40.63283 3.49036 25618 ft 356 kts 205°
2026-05-04 09:26 40.60981 3.47866 25148 ft 358 kts 205°
2026-05-04 09:26 40.58573 3.46632 24671 ft 382 kts 205°
2026-05-04 09:27 40.56102 3.45372 24297 ft 388 kts 205°
2026-05-04 09:27 40.53566 3.44088 23665 ft 393 kts 205°
2026-05-04 09:27 40.51009 3.42796 23050 ft 392 kts 205°
2026-05-04 09:27 40.48489 3.41526 22553 ft 384 kts 205°
2026-05-04 09:28 40.45984 3.40363 22040 ft 380 kts 200°
2026-05-04 09:28 40.43406 3.39646 21524 ft 379 kts 192°
2026-05-04 09:28 40.40783 3.39416 21018 ft 378 kts 185°
2026-05-04 09:28 40.38161 3.39562 20506 ft 375 kts 182°
2026-05-04 09:29 40.35605 3.39720 20005 ft 371 kts 182°
2026-05-04 09:29 40.33041 3.39870 19498 ft 367 kts 182°
2026-05-04 09:29 40.30502 3.40014 18990 ft 364 kts 182°
2026-05-04 09:29 40.27980 3.40156 18499 ft 361 kts 182°
2026-05-04 09:30 40.25469 3.40298 17942 ft 360 kts 182°
2026-05-04 09:30 40.22988 3.40439 17466 ft 355 kts 182°
2026-05-04 09:30 40.20535 3.40579 16977 ft 351 kts 182°
2026-05-04 09:30 40.18110 3.40718 16489 ft 347 kts 182°
2026-05-04 09:31 40.15713 3.40854 16007 ft 344 kts 182°
2026-05-04 09:31 40.13367 3.40986 15542 ft 340 kts 182°
2026-05-04 09:31 40.11014 3.41117 15178 ft 334 kts 181°
2026-05-04 09:31 40.08736 3.41248 15054 ft 321 kts 182°
2026-05-04 09:32 40.06550 3.41374 14920 ft 309 kts 182°
2026-05-04 09:32 40.04431 3.41495 14646 ft 302 kts 182°
2026-05-04 09:34 39.89932 3.42304 12394 ft 289 kts 181°
2026-05-04 09:34 39.87932 3.42416 12036 ft 285 kts 181°
2026-05-04 09:34 39.85980 3.42526 11695 ft 278 kts 181°
2026-05-04 09:34 39.84075 3.42631 11359 ft 270 kts 182°
2026-05-04 09:35 39.82209 3.42707 10946 ft 267 kts 182°
2026-05-04 09:35 39.80340 3.42793 10300 ft 274 kts 180°
2026-05-04 09:35 39.78409 3.42914 9690 ft 280 kts 179°
2026-05-04 09:35 39.76499 3.43041 9227 ft 277 kts 179°
2026-05-04 09:37 39.70127 3.32525 6583 ft 264 kts 270°
2026-05-04 09:37 39.70206 3.30149 6462 ft 264 kts 270°
2026-05-04 09:38 39.70280 3.27781 6363 ft 267 kts 270°
2026-05-04 09:38 39.70354 3.25405 6229 ft 261 kts 270°
2026-05-04 09:38 39.70428 3.23040 6104 ft 263 kts 270°
2026-05-04 09:38 39.70501 3.20657 5833 ft 266 kts 270°
2026-05-04 09:39 39.70574 3.18261 5566 ft 262 kts 270°
2026-05-04 09:39 39.70647 3.15915 5284 ft 257 kts 269°
2026-05-04 09:39 39.70717 3.13664 5156 ft 242 kts 269°
2026-05-04 09:39 39.70781 3.11548 5010 ft 228 kts 269°
2026-05-04 09:40 39.70738 3.09525 4684 ft 221 kts 257°
2026-05-04 09:40 39.70302 3.07675 4293 ft 216 kts 244°
2026-05-04 09:40 39.69603 3.05952 4041 ft 222 kts 239°
2026-05-04 09:40 39.68804 3.04264 3856 ft 216 kts 238°
2026-05-04 09:41 39.68017 3.02601 3760 ft 214 kts 237°
2026-05-04 09:42 39.63604 2.93269 3039 ft 142 kts 236°
2026-05-04 09:43 39.63092 2.92190 2870 ft 145 kts 237°
2026-05-04 09:43 39.62564 2.91066 2686 ft 143 kts 237°
2026-05-04 09:43 39.62063 2.89990 2497 ft 138 kts 236°
2026-05-04 09:43 39.61548 2.88922 2316 ft 141 kts 236°
2026-05-04 09:44 39.61037 2.87844 2113 ft 140 kts 237°
2026-05-04 09:44 39.60525 2.86751 1929 ft 141 kts 237°
2026-05-04 09:44 39.60026 2.85685 1746 ft 141 kts 237°
2026-05-04 09:46 39.56584 2.78403 437 ft 118 kts 234°
2026-05-04 09:46 39.56172 2.77448 247 ft 126 kts 233°
2026-05-04 09:46 39.55702 2.76495 134 ft 129 kts 233°
2026-05-04 09:47 39.55233 2.75526 39 ft 120 kts 237°
2026-05-04 09:47 39.54866 2.74756 28 ft 56 kts 238°
2026-05-04 09:49 39.54799 2.74316 31 ft 0 kts 266°
2026-05-04 09:49 39.54799 2.74307 31 ft 2 kts 265°
2026-05-04 09:51 39.54938 2.74036 32 ft 10 kts 315°
2026-05-04 09:51 39.54937 2.73989 33 ft 0 kts 252°
2026-05-04 09:51 39.54925 2.73974 33 ft 8 kts 217°
2026-05-04 09:51 39.54876 2.73970 33 ft 6 kts 191°
2026-05-04 09:52 39.54863 2.73963 33 ft 5 kts 206°
2026-05-04 09:52 39.54855 2.73955 32 ft 1 kts 222°
2026-05-04 09:53 39.54851 2.73945 33 ft 0 kts 244°
2026-05-04 09:53 39.54840 2.73919 33 ft 3 kts 243°
2026-05-04 09:53 39.54841 2.73898 33 ft 1 kts 278°
2026-05-04 09:53 39.54845 2.73873 33 ft 1 kts 285°
2026-05-04 09:54 39.54845 2.73872 33 ft 3 kts 285°
2026-05-04 09:54 39.54845 2.73850 33 ft 1 kts 270°
2026-05-04 09:54 39.54846 2.73844 33 ft 2 kts 270°
2026-05-04 09:54 39.54846 2.73840 33 ft 0 kts 272°
2026-05-04 09:55 39.54846 2.73838 33 ft 0 kts 274°
2026-05-04 09:55 39.54846 2.73837 33 ft 0 kts 270°